• Currently

    Reported at Minneapolis, Minneapolis-St. Paul International Airport, MN
    9:53 AM CST MON MAY 29 2017
  • 59°F15°C
  • Overcast
    Overcast
  • Feels Like:59°F15°CDew Point:48°F9°CHumidity:68% Winds:NW 15 mph G 2124 kph G 34
    Pressure:29.8 in1009 hPaVisibility:10.00 miles16090.00 meters
Time Weather Temp Dew Point
Humidity Winds Visibility Pressure Precipitation
1 hr 24 hr
Friday, May 26
23:53 23:53 Cloudy Cloudy 63°F17°C 54°F12°C 73% SSE 6 mphSSE 9 kph 10.0 miles16.1 km 29.71 in1006 hPa 0.00 in0.03 mm --
22:53 22:53 Cloudy With Light Rain Cloudy With Light Rain 65°F18°C 54°F12°C 68% SW 5 mphSW 7 kph 10.0 miles16.1 km 29.71 in1006 hPa 0.01 in6.45 mm --
21:53 21:53 Cloudy With Light Rain Cloudy With Light Rain 65°F18°C 53°F12°C 66% SSE 7 mphSSE 11 kph 10.0 miles16.1 km 29.68 in1005 hPa 0.00 in0.03 mm --
20:53 20:53 Cloudy Cloudy 66°F19°C 50°F10°C 56% SE 7 mphSE 11 kph 10.0 miles16.1 km 29.65 in1004 hPa 0.00 in0.00 mm --
19:53 19:53 Mostly Cloudy Mostly Cloudy 69°F21°C 49°F9°C 49% S 7 mphS 11 kph 10.0 miles16.1 km 29.65 in1004 hPa 0.00 in0.00 mm --
18:53 18:53 Mostly Cloudy Mostly Cloudy 69°F21°C 50°F10°C 51% SE 8 mphSE 13 kph 10.0 miles16.1 km 29.65 in1004 hPa 0.00 in0.00 mm --
17:53 17:53 Partly Cloudy Partly Cloudy 71°F22°C 49°F9°C 46% S 13 mphS 20 kph 10.0 miles16.1 km 29.65 in1004 hPa 0.00 in0.00 mm --
16:53 16:53 Partly Cloudy Partly Cloudy 70°F21°C 50°F10°C 49% SSE 12 mphSSE 19 kph 10.0 miles16.1 km 29.62 in1003 hPa 0.00 in0.03 mm --
15:53 15:53 Mostly Cloudy With Light Rain Mostly Cloudy With Light Rain 66°F19°C 51°F11°C 59% SSE 8 mphSSE 13 kph 10.0 miles16.1 km 29.65 in1004 hPa 0.00 in0.03 mm --
14:53 14:53 Partly Cloudy Partly Cloudy 69°F21°C 49°F9°C 49% S 9 mphS 15 kph 10.0 miles16.1 km 29.65 in1004 hPa 0.00 in0.00 mm --
13:53 13:53 Mostly Cloudy Mostly Cloudy 66°F19°C 48°F9°C 52% SSE 5 mphSSE 7 kph 10.0 miles16.1 km 29.65 in1004 hPa 0.00 in0.00 mm --
12:53 12:53 Mostly Cloudy Mostly Cloudy 66°F19°C 47°F8°C 50% SSE 12 mphSSE 19 kph 10.0 miles16.1 km 29.68 in1005 hPa 0.00 in0.00 mm --
11:53 11:53 Mostly Cloudy Mostly Cloudy 66°F19°C 48°F9°C 52% S 13 mphS 20 kph 10.0 miles16.1 km 29.68 in1005 hPa 0.00 in0.00 mm --
10:53 10:53 Mostly Cloudy Mostly Cloudy 63°F17°C 49°F9°C 60% SSE 12 mphSSE 19 kph 10.0 miles16.1 km 29.68 in1005 hPa 0.00 in0.00 mm --
09:53 09:53 Partly Cloudy Partly Cloudy 62°F17°C 50°F10°C 65% SSE 12 mphSSE 19 kph 10.0 miles16.1 km 29.71 in1006 hPa 0.00 in0.00 mm --
08:53 08:53 Mostly Sunny Mostly Sunny 58°F14°C 50°F10°C 75% S 6 mphS 9 kph 10.0 miles16.1 km 29.71 in1006 hPa 0.00 in0.00 mm --
07:53 07:53 Mostly Sunny Mostly Sunny 55°F13°C 49°F9°C 80% SE 8 mphSE 13 kph 10.0 miles16.1 km 29.71 in1006 hPa 0.00 in0.00 mm --
06:53 06:53 Sunny Sunny 52°F11°C 48°F9°C 86% SE 6 mphSE 9 kph 10.0 miles16.1 km 29.71 in1006 hPa 0.00 in0.00 mm --
05:53 05:53 Mostly Sunny Mostly Sunny 50°F10°C 46°F8°C 86% SE 3 mphSE 6 kph 10.0 miles16.1 km 29.71 in1006 hPa 0.00 in0.00 mm --
04:53 04:53 Clear Clear 51°F11°C 47°F8°C 86% E 8 mphE 13 kph 10.0 miles16.1 km 29.68 in1005 hPa 0.00 in0.00 mm --
03:53 03:53 Clear Clear 51°F11°C 47°F8°C 86% E 7 mphE 11 kph 10.0 miles16.1 km 29.68 in1005 hPa 0.00 in0.00 mm --
02:53 02:53 Clear Clear 52°F11°C 46°F8°C 80% E 7 mphE 11 kph 10.0 miles16.1 km 29.68 in1005 hPa 0.00 in0.00 mm --
01:53 01:53 Mostly Clear Mostly Clear 53°F12°C 45°F7°C 74% E 5 mphE 7 kph 10.0 miles16.1 km 29.71 in1006 hPa 0.00 in0.00 mm --
00:53 00:53 Mostly Clear Mostly Clear 54°F12°C 45°F7°C 72% ENE 3 mphENE 6 kph 10.0 miles16.1 km 29.71 in1006 hPa 0.00 in0.00 mm --